Вернуться в каталог

O3B FM10

АктивенСвязьMEO
NORAD 40348·PAYLOAD·🇱🇺 Luxembourg

Запущен Dec 18, 2014 с Guiana Space Centre

Loading…

Ближайшие Пролёты (ближайшие 24 часа)

TLE

СвежийSource: CelesTrak SupGP

Эпоха: Sep 14, 2026, 15:00 UTC

1 40348C 14083A   26257.62500000  .00000000  00000+0  00000+0 0  2575
2 40348   0.0495 344.9050 0002689 187.4953  33.9032  5.00115887    12

Отслеживайте O3B FM10 в реальном времени с AllMySat

Download on the App Store